User: anonymous   Login
Location: Unspecified
(0.0000°N, 0.0000°E)
Time: 03:30:19
(UTC+00:00)
Language:

NOSS 3-3 (C) - Orbit

View from above orbital plane
View from above orbital plane
View from above satellite
View from above satellite

Ground track
Ground track

The orbit data is extracted from the following two-line orbital elements,

1 28541U 05004C   17172.96149881 0.00000080  00000-0  11748-3 0    08
2 28541  63.4360 176.4598 0268000 357.6857   2.3143 13.40735451    07
Epoch (UTC): 21 June 2017 23:04:33
Eccentricity: 0.0268000
inclination: 63.4360°
perigee height: 906 km
apogee height: 1307 km
right ascension of ascending node: 176.4598°
argument of perigee: 357.6857°
revolutions per day: 13.40735451
mean anomaly at epoch: 2.3143°
orbit number at epoch: 0

The dashed part of the orbit path shows where the satellite is in the earth's shadow,  

DLR